CYTZ

Toronto/Billy Bishop Toronto City Airport

Airport
ICAO code
CYTZ
IATA Code
YTZ
Summary
ICAO Region
NAM
ICAO Territory
Location

Toronto, Ontario,

Serving
Toronto
Elevation
252 ft
Coordinates
43° 37' 42" N , 79° 23' 46" W
KCC
Airport WX
Lake Effect Snow
Metar
Observation
CYTZ 280728Z AUTO 23014G19KT 9SM BKN024 BKN030 OVC036 03/00 A2980 RMK SLP095
Station
Toronto Island Airport Automated Reporting Station
Date/Time
2023-01-28 07:28:00
Wind direction
230°
Wind speed
14 kts
Lowest cloud amount
broken clouds
Temperature
3°C
Dew point
0°C
Humidity
80%
Weather condition
n/a

Description

The Billy Bishop Toronto City Airport, more commonly known as the Toronto Island Airport and previously known officially as Toronto City Centre Airport, is a small airport located on the Toronto Islands in Toronto, Ontario, Canada.

Climatology

Humid continental climate (Köppen climate classification Dfa) - characterized by four seasons: cold, windy, snowy winters, mild springs, hot, humid summers, and crisp and relatively short autumns. Precipitation reaches its lowest in January and February and peaks in summer and latter half of spring.

Runways

Designator Length Width Surface Rops
15/33 847 46 ASP Yes/Yes
6/24 894 46 ASP Yes/Yes
8/26 1216 46 ASP Yes/Yes

Airport map

Aerial View

SKYbrary Partners:

Safety knowledge contributed by: